Location: Banios
(43.0451°N, 0.2335°E)
Time: 13:50:26
(UTC+00:00)

Meteor 2-13 Rocket - Pass Details

Date: 25 January 2021
Orbit: 936 x 957 km, 82.5° (Epoch: 25 February)

Event Time Altitude Azimuth Distance (km) Brightness Sun altitude
Rises 05:24:37 0° 348° (NNW) 3,648 7.3 -21.2°
Reaches altitude 10° 05:27:09 10° 346° (NNW) 2,697 6.6 -20.7°
Maximum altitude 05:33:14 63° 266° (W) 1,059 4.4 -19.6°
Drops below altitude 10° 05:39:15 10° 187° (S) 2,671 6.8 -18.5°
Sets 05:41:45 0° 184° (S) 3,609 7.5 -18.1°
